Cloud_Cover
0 0 0 0 0 0 0 0 0 0 0 0 0 0 0 0 0 0 0 0 0 0 0 0 0 0 0 0 0 0 0 0 0 2 1 5 8 5 5 8 41 100 100 100 100 95 84 100 87
0 0 0 0 0 0 0 0 0 0 0 0 0 0 0 0 0 0 0 0 0 0 0 0 0 0 0 0 0 0 0 0 5 0 0 0 1 4 5 16 5 67 100 97 99 100 78 100 99
0 0 0 0 0 0 0 0 0 0 0 0 0 0 0 0 0 0 0 0 0 0 0 0 0 0 0 0 0 0 0 0 1 10 6 0 5 0 0 5 5 44 79 100 92 100 100 100 100
0 0 0 0 0 0 0 0 0 0 0 0 0 0 0 0 0 0 0 0 0 0 0 0 0 0 0 0 0 0 0 0 0 5 0 0 17 32 80 1 98 100 38 99 98 100 100 66 67
0 0 0 0 0 0 0 0 0 0 0 0 3 0 0 0 0 0 0 0 0 0 0 0 0 0 0 0 0 0 0 0 0 0 1 0 0 0 99 100 100 100 100 40 54 93 100 100 100
0 0 0 0 0 0 1 1 0 0 0 1 4 0 0 0 0 0 0 0 0 0 0 0 4 0 0 0 0 0 0 0 0 0 0 0 0 0 0 44 89 90 100 9 4 52 100 100 100
1 0 0 0 0 0 0 0 0 1 0 54 0 0 0 0 0 0 0 0 0 0 0 7 4 0 2 0 4 0 0 0 0 0 0 4 0 0 0 0 9 89 63 0 0 28 100 83 76
0 0 0 0 0 0 0 0 0 0 0 81 3 0 0 0 0 0 0 0 0 0 0 1 10 7 9 8 100 60 55 5 0 0 0 0 0 0 0 0 49 100 15 0 0 0 0 0 90
0 0 0 0 0 0 0 0 0 0 0 56 14 5 0 0 0 0 0 0 0 0 0 0 1 12 10 19 42 100 100 77 81 0 2 2 12 0 0 0 0 0 4 0 0 0 0 0 0
0 0 0 0 0 0 0 0 0 0 0 0 3 4 0 0 0 0 0 0 0 0 0 0 0 0 13 13 3 28 19 3 1 3 23 100 79 4 0 0 0 0 0 0 0 0 0 0 0
0 0 0 0 0 0 0 0 0 0 2 0 0 0 0 0 0 0 0 0 0 0 0 0 0 0 0 0 8 30 55 43 8 71 98 100 100 100 41 0 0 0 0 0 0 0 0 0 0
0 0 0 0 0 0 0 0 0 0 4 0 0 0 0 0 0 0 0 0 0 0 0 4 4 0 0 0 0 16 56 42 7 0 100 100 100 100 100 2 0 0 0 0 0 0 0 0 0
5 4 5 5 0 0 5 0 2 0 0 5 2 0 0 0 0 0 0 0 0 0 0 0 1 5 1 0 0 4 4 2 0 0 0 76 100 100 100 0 0 1 0 0 0 0 0 0 0
25 35 9 5 0 0 0 0 5 5 21 23 5 0 0 0 0 0 0 2 0 0 0 0 0 0 0 1 0 0 0 0 0 0 0 0 9 97 100 24 0 0 0 0 0 0 0 0 0
84 81 63 5 5 5 5 4 0 0 5 5 3 5 1 0 3 4 0 0 0 5 4 0 0 0 0 0 0 0 0 0 0 1 0 0 0 0 100 65 0 0 0 0 0 0 0 0 0
100 13 96 100 5 5 32 84 83 6 0 53 5 4 1 5 0 0 0 0 0 0 3 4 5 6 0 0 0 0 0 0 0 0 8 100 97 86 100 62 12 0 0 0 0 0 0 0 0
100 97 98 82 99 85 46 48 96 99 25 1 0 0 4 5 5 5 5 0 0 0 0 1 0 2 27 43 3 0 0 0 0 0 8 100 100 100 100 100 56 27 0 0 0 0 0 0 0
51 65 84 100 100 100 100 100 100 18 98 98 27 2 0 0 3 5 52 6 2 5 4 0 0 0 0 0 5 5 5 3 4 16 34 97 100 100 100 100 99 24 4 1 0 0 0 0 0
60 85 97 71 5 6 99 100 100 100 100 82 100 100 100 84 4 5 5 7 5 5 5 1 5 5 4 2 14 12 1 2 38 98 100 100 100 100 100 100 100 42 0 1 0 5 1 0 5
62 45 48 53 12 30 100 100 100 100 100 100 100 100 100 100 100 62 91 64 17 1 0 12 18 75 56 12 6 42 98 31 6 92 100 100 100 100 100 100 100 100 70 34 0 0 0 4 0
30 6 53 9 44 71 51 41 100 100 100 100 100 100 100 100 100 100 100 100 100 100 84 12 5 5 6 5 4 5 4 72 30 66 100 100 92 100 100 100 100 100 100 97 53 4 0 0 3
14 36 33 8 5 3 5 71 100 100 100 100 100 100 100 100 100 100 100 100 100 100 100 100 100 100 95 53 75 5 1 1 53 69 8 92 90 77 100 100 100 100 100 100 100 82 35 0 0
41 6 5 6 86 99 74 4 99 13 20 93 60 5 73 96 27 100 100 100 100 100 100 100 100 100 100 100 100 100 62 5 5 5 84 96 100 100 100 99 100 100 100 100 100 100 100 78 7
20 26 8 10 59 21 50 17 100 77 5 5 28 94 48 23 5 5 30 74 93 100 100 100 100 100 100 100 100 100 100 99 84 6 12 6 29 91 100 100 84 58 92 100 100 100 100 100 100
89 69 95 28 26 49 58 37 95 43 7 14 7 4 14 74 13 10 25 50 77 23 88 39 66 100 100 100 100 100 100 100 100 76 20 20 94 59 12 75 100 100 58 8 42 68 89 72 84
7 81 48 37 6 8 18 11 10 7 93 97 54 21 7 16 98 5 50 99 8 90 80 27 5 9 76 100 100 100 99 92 100 100 100 100 78 24 92 26 21 15 9 6 6 5 23 67 97
13 66 40 72 78 33 5 38 100 100 100 100 100 99 96 100 32 52 100 100 100 95 99 100 76 100 100 100 100 97 100 85 99 59 100 100 96 100 100 58 5 27 29 5 5 5 5 9 31
100 84 95 100 100 100 100 100 100 100 100 100 100 84 24 5 7 58 77 90 100 98 100 100 52 75 89 95 100 100 100 100 100 69 20 20 98 98 73 100 100 61 26 22 86 32 5 5 8
97 9 26 84 100 100 98 6 80 100 100 60 60 12 79 87 90 91 75 76 15 79 99 98 100 98 98 100 100 100 100 100 100 100 100 93 41 36 72 50 84 57 22 60 70 64 30 41 79
100 100 76 98 100 100 96 19 100 48 15 73 6 5 5 7 7 6 53 95 97 90 100 100 90 98 100 100 77 89 100 100 96 93 100 100 100 100 88 47 92 99 95 100 81 17 99 50 80